TimeEST,TemperatureF,Dew PointF,Humidity,Sea Level PressureIn,VisibilityMPH,Wind Direction,Wind SpeedMPH,Gust SpeedMPH,PrecipitationIn,Events,Conditions,WindDirDegrees,DateUTC
12:53 AM,-0.0,-11.0,60,30.29,10.0,South,5.8,-,N/A,,Clear,190,2013-01-08 05:53:00
1:53 AM,1.9,-9.9,58,30.25,10.0,Variable,5.8,-,N/A,,Partly Cloudy,0,2013-01-08 06:53:00
2:34 AM,-2.2,-11.2,66,30.19,10.0,Calm,Calm,-,N/A,,Mostly Cloudy,0,2013-01-08 07:34:00
2:53 AM,-2.9,-9.9,72,30.22,10.0,Calm,Calm,-,N/A,,Overcast,0,2013-01-08 07:53:00
3:53 AM,-2.0,-9.9,69,30.18,10.0,SW,4.6,-,N/A,,Scattered Clouds,220,2013-01-08 08:53:00
4:53 AM,-4.0,-9.0,79,30.19,10.0,Calm,Calm,-,N/A,,Clear,0,2013-01-08 09:53:00
5:53 AM,3.9,-0.9,80,30.16,10.0,South,5.8,-,N/A,,Clear,190,2013-01-08 10:53:00
6:53 AM,-0.0,-5.1,79,30.18,10.0,Calm,Calm,-,N/A,,Scattered Clouds,0,2013-01-08 11:53:00
7:53 AM,12.0,6.1,77,30.17,10.0,South,9.2,-,N/A,,Overcast,190,2013-01-08 12:53:00
8:53 AM,17.1,8.1,68,30.15,10.0,SSW,8.1,-,N/A,,Overcast,210,2013-01-08 13:53:00
9:53 AM,18.0,8.1,65,30.15,10.0,SSW,8.1,-,N/A,,Overcast,200,2013-01-08 14:53:00
10:53 AM,19.9,9.0,62,30.14,10.0,SSW,8.1,-,N/A,,Overcast,200,2013-01-08 15:53:00
11:53 AM,21.9,10.9,63,30.13,10.0,SSW,5.8,-,N/A,,Overcast,200,2013-01-08 16:53:00
12:53 PM,25.0,12.9,60,30.12,10.0,SSW,3.5,-,N/A,,Overcast,200,2013-01-08 17:53:00
1:53 PM,28.0,16.0,61,30.14,10.0,South,5.8,-,N/A,,Overcast,190,2013-01-08 18:53:00
2:53 PM,30.0,18.0,61,30.14,10.0,SSW,9.2,-,N/A,,Overcast,200,2013-01-08 19:53:00
3:53 PM,30.9,19.9,64,30.15,10.0,SW,8.1,-,N/A,,Partly Cloudy,220,2013-01-08 20:53:00
4:53 PM,28.9,19.9,69,30.17,10.0,SW,6.9,-,N/A,,Mostly Cloudy,220,2013-01-08 21:53:00
5:53 PM,30.0,21.0,69,30.19,10.0,SW,6.9,-,N/A,,Overcast,220,2013-01-08 22:53:00
6:53 PM,30.9,21.0,67,30.21,10.0,SW,4.6,-,N/A,,Overcast,220,2013-01-08 23:53:00
7:53 PM,28.9,21.0,72,30.22,10.0,WSW,5.8,-,N/A,,Overcast,240,2013-01-09 00:53:00
8:53 PM,30.0,21.9,72,30.23,10.0,West,6.9,-,N/A,,Clear,260,2013-01-09 01:53:00
9:53 PM,30.0,21.9,72,30.26,9.0,West,4.6,-,N/A,,Mostly Cloudy,270,2013-01-09 02:53:00
10:53 PM,30.0,21.9,72,30.26,9.0,WSW,9.2,-,N/A,,Clear,240,2013-01-09 03:53:00
11:53 PM,28.4,21.2,74,30.24,9.0,SW,5.8,-,N/A,,Clear,230,2013-01-09 04:53:00